www.pogodaiklimat.ru

Погода и климат >> Архив погоды >> Мьянма >> Мейтхила


ПОГОДА в Мейтхиле

  • Прогноз погоды в Мейтхиле
  • Монитор погоды в Мейтхиле

АРХИВ ПОГОДЫ в Мейтхиле

Время (UTC), дата Ветер
(напр.,м/с)
 
Видим.   Явления Облачность Т
(С)
Тd
(С)
f
(%)
Тe
(С)
Тes
(С)
Комфортность P
(гПа)
Po
(гПа)
Тmin
(С)
Tmax
(С)
R
(мм)
R24
(мм)
S
(см)
03 16.09 ЮЗ 2 6000 м 5/3 600 м
[Sc Ac und]
+31.0 +25.4 72 +45 +52 опасность
перегрева
1008.9 984.3
06 16.09 ЮЗ 2 7000 м 9/6 600 м
[Cb cap Ac und]
+35.0 +25.4 58 +50 +53 опасность
перегрева
1006.3 982.0
09 16.09 Ю 1 7000 м 9/6 600 м
[Cb cap Ac und]
+37.0 +25.8 53 +52 +54 опасность
перегрева
1002.9 978.9
12 16.09 штиль 0 6000 м 9/6 600 м
[Cb cap Ac und]
+33.0 +24.4 61 +46 +46 опасность
перегрева
1003.3 979.0 +37.0
00 17.09 штиль 0 4000 м дымка 8/5 600 м
[Sc Ac und]
+25.0 +23.3 90 +33 +34 очень
душно
1008.1 983.0 +24.4 1
03 17.09 Ю 1 6000 м 6/4 600 м
[Sc Ac und]
+29.0 +24.8 78 +41 +48 опасность
перегрева
1009.7 984.9
06 17.09 Ю 2 7000 м 5/5 600 м
[Cu Sc]
+35.0 +25.4 58 +50 +59 опасность
перегрева
1007.7 983.4
09 17.09 ЮЗ 2 7000 м 6/5 300 м
[Cb cap Ac und]
+35.0 +25.4 58 +50 +53 опасность
перегрева
1005.6 981.4
12 17.09 штиль 0 6000 м 5/5 300 м
[Cb cap]
+32.0 +24.8 66 +45 +45 опасность
перегрева
1005.6 981.1 +36.2
00 18.09 штиль 0 6000 м 4/3 600 м
[Sc Ac trans]
+26.0 +24.6 92 +37 +37 очень
душно
1009.4 984.3 +25.6
03 18.09 Ю 1 6000 м 8/4 600 м
[Sc Ac und]
+31.0 +23.7 65 +42 +47 опасность
перегрева
1010.8 986.1
06 18.09 С 3 7000 м 6/6 300 м
[Cb cap]
+35.0 +25.4 58 +50 +56 опасность
перегрева
1009.4 985.1
09 18.09 Ю 4 5000 м гроза без осадков 10/8 300 м
[Cb cap Ac As]
+31.0 +23.7 65 +42 +42 опасность
перегрева
1007.9 983.3
12 18.09 штиль 0 6000 м {гроза, морось} 9/6 300 м
[Cb cap Ac und]
+27.0 +24.0 84 +37 +37 очень
душно
1009.5 984.5 +36.0 0.0
00 19.09 штиль 0 4000 м дымка 4/3 600 м
[Sc Ci fib]
+25.5 +24.7 95 +36 +36 очень
душно
1009.5 984.4 +24.5
03 19.09 Ю 2 6000 м 4/3 600 м
[Sc Ci fib]
+30.0 +25.3 76 +44 +52 опасность
перегрева
1010.9 986.1
06 19.09 ЮВ 3 7000 м 5/4 600 м
[Cu Sc Ci fib]
+35.0 +26.6 62 +52 +61 опасность
перегрева
1008.9 984.6
09 19.09 Ю 2 6000 м гроза без осадков {морось} 9/6 300 м
[Cb cap Ac und]
+28.0 +23.3 76 +38 +39 очень
душно
1009.2 984.3
12 19.09 СВ 1 5000 м {гроза} 6/4 300 м
[Sc Ac trans]
+28.0 +25.0 84 +40 +40 очень
душно
1008.9 984.0 +35.5 0.0
00 20.09 штиль 0 5000 м дымка 4/3 600 м
[Sc Ac trans]
+24.0 +23.2 95 +32 +32 очень
душно
1008.8 983.6 +23.8
03 20.09 Ю 2 6000 м 8/4 600 м
[Sc Ac und]
+30.0 +23.9 70 +41 +45 опасность
перегрева
1010.3 985.6
06 20.09 штиль 0 7000 м 8/5 600 м
[Cb cap Ac und]
+33.0 +25.8 66 +48 +56 опасность
перегрева
1008.7 984.2
09 20.09 СВ 2 6000 м {гроза} 8/5 300 м
[Cb cap Ac und]
+31.0 +25.4 72 +45 +47 опасность
перегрева
1006.4 981.8
12 20.09 штиль 0 6000 м 9/5 600 м
[Cb cap Ac und Ci sp]
+31.0 +25.4 72 +45 +45 опасность
перегрева
1005.2 980.7 +34.7
00 21.09 штиль 0 4000 м дымка 8/5 600 м
[Sc Ac und]
+26.0 +24.6 92 +37 +37 очень
душно
1008.0 983.0 +25.6
03 21.09 Ю 1 6000 м 8/5 600 м
[Sc Ac und]
+29.0 +24.8 78 +41 +45 опасность
перегрева
1010.1 985.3
06 21.09 СВ 2 6000 м 5/5 600 м
[Cu Sc]
+33.0 +24.4 61 +46 +55 опасность
перегрева
1006.5 982.1
09 21.09 ЮЗ 2 6000 м 8/5 600 м
[Cb cap Ac und]
+35.0 +23.7 52 +46 +48 опасность
перегрева
1005.6 981.4
12 21.09 СЗ 2 6000 м гроза без осадков 9/6 300 м
[Cb cap Ac und]
+30.0 +23.9 70 +41 +41 опасность
перегрева
1007.6 982.9 +36.5
00 22.09 штиль 0 5000 м дымка 10/5 300 м
[Sc Ac und]
+25.0 +23.3 90 +33 +33 очень
душно
1010.7 985.5 +24.4 0.0
03 22.09 СВ 2 6000 м 8/5 300 м
[Sc Ac und]
+27.0 +24.0 84 +37 +41 очень
душно
1013.8 988.7
06 22.09 СВ 3 7000 м 6/5 600 м
[Cb cap Ac trans]
+32.0 +23.6 61 +43 +50 опасность
перегрева
1011.9 987.3
09 22.09 СВ 3 7000 м 8/6 600 м
[Cb cap Ci fib]
+32.0 +24.8 66 +45 +48 опасность
перегрева
1008.9 984.3
12 22.09 СВ 3 6000 м 9/6 600 м
[Cb cap Ac und]
+29.0 +24.8 78 +41 +41 опасность
перегрева
1008.8 984.0 +33.0

 

Местоположение метеостанции Мейтхила (Мьянма): широта 20.83 долгота 95.83 высота над уровнем моря 220 м.

В архиве по умолчанию представлена погода в Мейтхиле за последнюю неделю. Архивные данные за месяц целиком и за предыдущие месяцы, начиная с января 2011 года, Вы можете получить, выбрав интересующий диапазон дат из раскрывающегося списка и нажав кнопку "Ввод!".


*Определитесь, кто Вы:
робот инопланетянин человек

Внимание! Время в таблицах - всемирное. Для получения местного времени необходимо прибавить поправку, которая равна 6.5 ч.

Смотрите также архив погоды в соседних городах и на ближайших метеорологических станциях:

Погода в Ньянг-У (Мьянма) (103 км)
Погода в Чау (Мьянма) (105 км)
Погода в Сикайне (Мьянма) (118 км)
Погода в Магуэе (Мьянма) (119 км)
Погода в Минбу (Мьянма) (123 км)
Погода в Таунджи (Мьянма) (127 км)
Погода в Пьинмане (Мьянма) (130 км)
Погода в Мандалае (Мьянма) (131 км)
Погода в Мемьо (Мьянма) (149 км)
Погода в Моунъюа (Мьянма) (159 км)

Пояснения к столбцам:

Ветер - указаны скорость ветра в м/с - средняя за 10 мин, порывы в срок и между сроками (в фигурных скобках) и направление, откуда дует ветер: С - северный, СВ - северо-восточный, В - восточный, ЮВ - юго-восточный, Ю - южный, ЮЗ - юго-западный, З - западный, СЗ - северо-западный.
Видимость - горизонтальная дальность видимости в метрах или километрах. При видимости от 1 до 10 км при отсутствии осадков обычно наблюдается дымка, при ухудшении видимости до 1 км и менее - туман. В сухую погоду видимость может ухудшаться дымом, пылью или мглою.
Явления - указаны атмосферные явления, наблюдавшиеся в срок или в последний час перед сроком; фигурными скобками обозначены явления, наблюдавшиеся между сроками (за 1-3 часа до срока); квадратными скобками обозначены град или гололедные отложения с указанием их диаметра в мм.
Облачность - указаны через наклонную черту общая и нижняя облачность в баллах и высота нижней границы облаков в метрах; квадратными скобками обозначены формы облаков: Ci - перистые, Cs - перисто-слоистые, Cc - перисто-кучевые, Ac - высококучевые, As - высокослоистые, Sc - слоисто-кучевые, Ns - слоисто-дождевые, Cu - кучевые, Cb - кучево-дождевые. Подробнее классификацию облаков см. в Атласе облаков (PDF).
T - Температура воздуха - температура, измеренная на высоте 2 м над землей.
Td - Температура точки росы - температура, при понижении до которой содержащийся в воздухе водяной пар достигнет насыщения.
f - Относительная влажность воздуха - влажноcть воздуха, измеренная на высоте 2 м над землей.
Te - Эффективная температура - температура, которую ощущает одетый по сезону человек в тени. Характеристика душности погоды. При расчете учитывается влияние влажности воздуха и скорости ветра на теплоощущения человека.
Tes - Эффективная температура на солнце - температура, которую ощущает человек, с поправкой на солнечный нагрев. Характеристика знойности погоды. Зависит от высоты солнца над горизонтом, облачности и скорости ветра. Ночью, в пасмурную погоду, а также при ветре 12 м/с и более поправка равна нулю.
P - Атмосферное давление - приведенное к уровню моря атмосферное давление.
Po - Атмосферное давление - измеренное на уровне метеостанции атмосферное давление.
Tmin - Минимальная температура - минимум температуры воздуха на высоте 2 м над землей.
Tmax - Максимальная температура - максимум температуры воздуха на высоте 2 м над землей.
R - Количество осадков - Количество выпавших осадков за период времени, мм. При наведении курсора мыши на число - период времени, за который выпало указанное количество осадков.
R24 - Количество осадков - Количество выпавших осадков за 24 часа, мм.
S - Снежный покров - Высота снежного покрова, см. При наведении курсора мыши на число - состояние снежного покрова и степень покрытия местности в баллах.